contact:dominique.lefevre@mio.osupytheas.fr, maurice.libes@osupytheas.fr, didier.mallarino@osupytheas.fr
Project:EMSO http://www.emso-fr.org/EMSO-France
Depth: 2436.0 m
Title:EMSO Ligure Ouest : Data MII capteur MICROCAT
DateTime_Computer,Latitude,Longitude,Temperature,Conductivity,Pressure,DateTime_Instrument
DateTime_Computer,Latitude,Longitude,degC,S m-1,dbar,DateTime_Instrument
2022-12-02T00:01:13Z,42.805,6.029,13.3012,4.60058,2470.624,2022-12-02T02:03:13Z
2022-12-02T00:04:16Z,42.805,6.029,13.3011,4.60057,2470.637,2022-12-02T02:06:16Z
2022-12-02T00:07:19Z,42.805,6.029,13.3011,4.60058,2470.646,2022-12-02T02:09:19Z
2022-12-02T00:10:22Z,42.805,6.029,13.3012,4.60059,2470.624,2022-12-02T02:12:22Z
2022-12-02T00:13:26Z,42.805,6.029,13.3015,4.60057,2470.6,2022-12-02T02:15:25Z
2022-12-02T00:16:29Z,42.805,6.029,13.3013,4.60059,2470.6,2022-12-02T02:18:28Z
2022-12-02T00:19:32Z,42.805,6.029,13.3011,4.60058,2470.6,2022-12-02T02:21:31Z
2022-12-02T00:22:35Z,42.805,6.029,13.3012,4.60058,2470.67,2022-12-02T02:24:34Z
2022-12-02T00:25:38Z,42.805,6.029,13.3012,4.60059,2470.624,2022-12-02T02:27:37Z
2022-12-02T00:28:41Z,42.805,6.029,13.3013,4.60059,2470.646,2022-12-02T02:30:41Z
2022-12-02T00:31:44Z,42.805,6.029,13.3014,4.60058,2470.637,2022-12-02T02:33:44Z
2022-12-02T00:34:47Z,42.805,6.029,13.3013,4.60058,2470.684,2022-12-02T02:36:47Z
2022-12-02T00:37:50Z,42.805,6.029,13.3009,4.60058,2470.661,2022-12-02T02:39:50Z
2022-12-02T00:40:53Z,42.805,6.029,13.3013,4.60060,2470.624,2022-12-02T02:42:53Z
2022-12-02T00:43:56Z,42.805,6.029,13.3015,4.60058,2470.646,2022-12-02T02:45:56Z
2022-12-02T00:46:59Z,42.805,6.029,13.3011,4.60059,2470.6,2022-12-02T02:48:59Z
2022-12-02T00:50:02Z,42.805,6.029,13.3011,4.60059,2470.67,2022-12-02T02:52:02Z
2022-12-02T00:53:05Z,42.805,6.029,13.3014,4.60059,2470.646,2022-12-02T02:55:05Z
2022-12-02T00:56:09Z,42.805,6.029,13.3011,4.60058,2470.637,2022-12-02T02:58:08Z
2022-12-02T00:59:12Z,42.805,6.029,13.3013,4.60058,2470.637,2022-12-02T03:01:11Z
2022-12-02T01:02:15Z,42.805,6.029,13.3012,4.60059,2470.661,2022-12-02T03:04:14Z
2022-12-02T01:05:18Z,42.805,6.029,13.3010,4.60059,2470.637,2022-12-02T03:07:17Z
2022-12-02T01:08:21Z,42.805,6.029,13.3013,4.60059,2470.646,2022-12-02T03:10:20Z
2022-12-02T01:11:24Z,42.805,6.029,13.3009,4.60059,2470.684,2022-12-02T03:13:24Z
2022-12-02T01:14:27Z,42.805,6.029,13.3010,4.60059,2470.646,2022-12-02T03:16:27Z
2022-12-02T01:17:30Z,42.805,6.029,13.3009,4.60059,2470.637,2022-12-02T03:19:30Z
2022-12-02T01:20:33Z,42.805,6.029,13.3011,4.60059,2470.633,2022-12-02T03:22:33Z
2022-12-02T01:23:36Z,42.805,6.029,13.3013,4.60058,2470.624,2022-12-02T03:25:36Z
2022-12-02T01:26:39Z,42.805,6.029,13.3011,4.60059,2470.646,2022-12-02T03:28:39Z
2022-12-02T01:29:42Z,42.805,6.029,13.3013,4.60062,2470.661,2022-12-02T03:31:42Z
2022-12-02T01:32:45Z,42.805,6.029,13.3011,4.60060,2470.646,2022-12-02T03:34:45Z
2022-12-02T01:35:48Z,42.805,6.029,13.3013,4.60059,2470.646,2022-12-02T03:37:48Z
2022-12-02T01:38:51Z,42.805,6.029,13.3011,4.60059,2470.646,2022-12-02T03:40:51Z
2022-12-02T01:41:55Z,42.805,6.029,13.3011,4.60060,2470.646,2022-12-02T03:43:54Z
2022-12-02T01:44:58Z,42.805,6.029,13.3014,4.60059,2470.646,2022-12-02T03:46:57Z
2022-12-02T01:48:01Z,42.805,6.029,13.3011,4.60059,2470.624,2022-12-02T03:50:00Z
2022-12-02T01:51:04Z,42.805,6.029,13.3011,4.60059,2470.67,2022-12-02T03:53:03Z
2022-12-02T01:54:07Z,42.805,6.029,13.3010,4.60059,2470.624,2022-12-02T03:56:07Z
2022-12-02T01:57:10Z,42.805,6.029,13.3011,4.60059,2470.67,2022-12-02T03:59:10Z
2022-12-02T02:00:13Z,42.805,6.029,13.3011,4.60059,2470.67,2022-12-02T04:02:13Z
2022-12-02T02:03:16Z,42.805,6.029,13.3012,4.60059,2470.693,2022-12-02T04:05:16Z
2022-12-02T02:06:19Z,42.805,6.029,13.3010,4.60059,2470.646,2022-12-02T04:08:19Z
2022-12-02T02:09:22Z,42.805,6.029,13.3013,4.60059,2470.624,2022-12-02T04:11:22Z
2022-12-02T02:12:25Z,42.805,6.029,13.3009,4.60059,2470.661,2022-12-02T04:14:25Z
2022-12-02T02:15:28Z,42.805,6.029,13.3011,4.60059,2470.661,2022-12-02T04:17:28Z
2022-12-02T02:18:31Z,42.805,6.029,13.3015,4.60060,2470.707,2022-12-02T04:20:31Z
2022-12-02T02:21:34Z,42.805,6.029,13.3009,4.60058,2470.661,2022-12-02T04:23:34Z
2022-12-02T02:24:38Z,42.805,6.029,13.3012,4.60059,2470.67,2022-12-02T04:26:37Z
2022-12-02T02:27:41Z,42.805,6.029,13.3012,4.60058,2470.684,2022-12-02T04:29:40Z
2022-12-02T02:30:44Z,42.805,6.029,13.3011,4.60059,2470.646,2022-12-02T04:32:43Z
2022-12-02T02:33:47Z,42.805,6.029,13.3012,4.60060,2470.67,2022-12-02T04:35:46Z
2022-12-02T02:36:50Z,42.805,6.029,13.3009,4.60060,2470.693,2022-12-02T04:38:49Z
2022-12-02T02:39:53Z,42.805,6.029,13.3013,4.60061,2470.646,2022-12-02T04:41:53Z
2022-12-02T02:42:56Z,42.805,6.029,13.3013,4.60059,2470.646,2022-12-02T04:44:56Z
2022-12-02T02:45:59Z,42.805,6.029,13.3014,4.60059,2470.67,2022-12-02T04:47:59Z
2022-12-02T02:49:02Z,42.805,6.029,13.3011,4.60061,2470.67,2022-12-02T04:51:02Z
2022-12-02T02:52:05Z,42.805,6.029,13.3011,4.60059,2470.684,2022-12-02T04:54:05Z
2022-12-02T02:55:08Z,42.805,6.029,13.3010,4.60059,2470.67,2022-12-02T04:57:08Z
2022-12-02T02:58:11Z,42.805,6.029,13.3014,4.60059,2470.67,2022-12-02T05:00:11Z
2022-12-02T03:01:14Z,42.805,6.029,13.3014,4.60059,2470.684,2022-12-02T05:03:14Z
2022-12-02T03:04:17Z,42.805,6.029,13.3015,4.60059,2470.67,2022-12-02T05:06:17Z
2022-12-02T03:07:20Z,42.805,6.029,13.3011,4.60059,2470.693,2022-12-02T05:09:20Z
2022-12-02T03:10:24Z,42.805,6.029,13.3015,4.60060,2470.67,2022-12-02T05:12:23Z
2022-12-02T03:13:27Z,42.805,6.029,13.3014,4.60062,2470.67,2022-12-02T05:15:26Z
2022-12-02T03:16:30Z,42.805,6.029,13.3013,4.60059,2470.707,2022-12-02T05:18:29Z
2022-12-02T03:19:33Z,42.805,6.029,13.3006,4.60060,2470.661,2022-12-02T05:21:32Z
2022-12-02T03:22:36Z,42.805,6.029,13.3011,4.60060,2470.684,2022-12-02T05:24:35Z
2022-12-02T03:25:39Z,42.805,6.029,13.3013,4.60059,2470.684,2022-12-02T05:27:39Z
2022-12-02T03:28:42Z,42.805,6.029,13.3015,4.60060,2470.67,2022-12-02T05:30:42Z
2022-12-02T03:31:45Z,42.805,6.029,13.3009,4.60060,2470.707,2022-12-02T05:33:45Z
2022-12-02T03:34:48Z,42.805,6.029,13.3015,4.60060,2470.684,2022-12-02T05:36:48Z
2022-12-02T03:37:51Z,42.805,6.029,13.3014,4.60060,2470.661,2022-12-02T05:39:51Z
2022-12-02T03:40:54Z,42.805,6.029,13.3015,4.60061,2470.73,2022-12-02T05:42:54Z
2022-12-02T03:43:57Z,42.805,6.029,13.3011,4.60061,2470.684,2022-12-02T05:45:57Z
2022-12-02T03:47:00Z,42.805,6.029,13.3014,4.60061,2470.67,2022-12-02T05:49:00Z
2022-12-02T03:50:03Z,42.805,6.029,13.3012,4.60063,2470.646,2022-12-02T05:52:03Z
2022-12-02T03:53:07Z,42.805,6.029,13.3015,4.60062,2470.67,2022-12-02T05:55:06Z
2022-12-02T03:56:10Z,42.805,6.029,13.3013,4.60062,2470.679,2022-12-02T05:58:09Z
2022-12-02T03:59:13Z,42.805,6.029,13.3014,4.60064,2470.684,2022-12-02T06:01:12Z
2022-12-02T04:02:16Z,42.805,6.029,13.3016,4.60064,2470.646,2022-12-02T06:04:15Z
2022-12-02T04:05:19Z,42.805,6.029,13.3018,4.60064,2470.646,2022-12-02T06:07:18Z
2022-12-02T04:08:22Z,42.805,6.029,13.3019,4.60067,2470.646,2022-12-02T06:10:22Z
2022-12-02T04:11:25Z,42.805,6.029,13.3016,4.60064,2470.707,2022-12-02T06:13:25Z
2022-12-02T04:14:28Z,42.805,6.029,13.3018,4.60064,2470.67,2022-12-02T06:16:28Z
2022-12-02T04:17:31Z,42.805,6.029,13.3015,4.60065,2470.646,2022-12-02T06:19:31Z
2022-12-02T04:20:34Z,42.805,6.029,13.3021,4.60065,2470.646,2022-12-02T06:22:34Z
2022-12-02T04:23:37Z,42.805,6.029,13.3019,4.60065,2470.646,2022-12-02T06:25:37Z
2022-12-02T04:26:40Z,42.805,6.029,13.3018,4.60065,2470.646,2022-12-02T06:28:40Z
2022-12-02T04:29:43Z,42.805,6.029,13.3020,4.60067,2470.624,2022-12-02T06:31:43Z
2022-12-02T04:32:46Z,42.805,6.029,13.3019,4.60066,2470.661,2022-12-02T06:34:46Z
2022-12-02T04:35:50Z,42.805,6.029,13.3021,4.60068,2470.67,2022-12-02T06:37:49Z
2022-12-02T04:38:53Z,42.805,6.029,13.3023,4.60068,2470.661,2022-12-02T06:40:52Z
2022-12-02T04:41:56Z,42.805,6.029,13.3021,4.60069,2470.637,2022-12-02T06:43:55Z
2022-12-02T04:44:59Z,42.805,6.029,13.3023,4.60068,2470.637,2022-12-02T06:46:58Z
2022-12-02T04:48:02Z,42.805,6.029,13.3019,4.60069,2470.661,2022-12-02T06:50:01Z
2022-12-02T04:51:05Z,42.805,6.029,13.3020,4.60069,2470.67,2022-12-02T06:53:05Z
2022-12-02T04:54:08Z,42.805,6.029,13.3025,4.60069,2470.661,2022-12-02T06:56:08Z
2022-12-02T04:57:11Z,42.805,6.029,13.3020,4.60070,2470.661,2022-12-02T06:59:11Z
2022-12-02T05:00:14Z,42.805,6.029,13.3019,4.60072,2470.661,2022-12-02T07:02:14Z
2022-12-02T05:03:17Z,42.805,6.029,13.3023,4.60072,2470.67,2022-12-02T07:05:17Z
2022-12-02T05:06:20Z,42.805,6.029,13.3024,4.60071,2470.661,2022-12-02T07:08:20Z
2022-12-02T05:09:23Z,42.805,6.029,13.3021,4.60072,2470.624,2022-12-02T07:11:23Z
2022-12-02T05:12:26Z,42.805,6.029,13.3021,4.60071,2470.67,2022-12-02T07:14:26Z
2022-12-02T05:15:29Z,42.805,6.029,13.3024,4.60072,2470.661,2022-12-02T07:17:29Z
2022-12-02T05:18:32Z,42.805,6.029,13.3022,4.60072,2470.661,2022-12-02T07:20:32Z
2022-12-02T05:21:36Z,42.805,6.029,13.3024,4.60072,2470.646,2022-12-02T07:23:35Z
2022-12-02T05:24:39Z,42.805,6.029,13.3020,4.60072,2470.693,2022-12-02T07:26:38Z
2022-12-02T05:27:42Z,42.805,6.029,13.3024,4.60072,2470.646,2022-12-02T07:29:41Z
2022-12-02T05:30:45Z,42.805,6.029,13.3026,4.60073,2470.67,2022-12-02T07:32:44Z
2022-12-02T05:33:48Z,42.805,6.029,13.3027,4.60072,2470.684,2022-12-02T07:35:48Z
2022-12-02T05:36:51Z,42.805,6.029,13.3021,4.60072,2470.684,2022-12-02T07:38:51Z
2022-12-02T05:39:54Z,42.805,6.029,13.3021,4.60072,2470.661,2022-12-02T07:41:54Z
2022-12-02T05:42:57Z,42.805,6.029,13.3024,4.60069,2470.624,2022-12-02T07:44:57Z
2022-12-02T05:46:00Z,42.805,6.029,13.3021,4.60069,2470.661,2022-12-02T07:48:00Z
2022-12-02T05:49:03Z,42.805,6.029,13.3021,4.60069,2470.624,2022-12-02T07:51:03Z
2022-12-02T05:52:06Z,42.805,6.029,13.3023,4.60069,2470.67,2022-12-02T07:54:06Z
2022-12-02T05:55:09Z,42.805,6.029,13.3021,4.60070,2470.684,2022-12-02T07:57:09Z
2022-12-02T05:58:12Z,42.805,6.029,13.3022,4.60070,2470.637,2022-12-02T08:00:12Z
2022-12-02T06:01:15Z,42.805,6.029,13.3023,4.60072,2470.674,2022-12-02T08:03:15Z
2022-12-02T06:04:19Z,42.805,6.029,13.3024,4.60069,2470.661,2022-12-02T08:06:18Z
2022-12-02T06:07:22Z,42.805,6.029,13.3022,4.60072,2470.661,2022-12-02T08:09:21Z
2022-12-02T06:10:25Z,42.805,6.029,13.3023,4.60070,2470.646,2022-12-02T08:12:24Z
2022-12-02T06:13:28Z,42.805,6.029,13.3020,4.60070,2470.646,2022-12-02T08:15:27Z
2022-12-02T06:16:31Z,42.805,6.029,13.3027,4.60069,2470.646,2022-12-02T08:18:31Z
2022-12-02T06:19:34Z,42.805,6.029,13.3024,4.60069,2470.624,2022-12-02T08:21:34Z
2022-12-02T06:22:37Z,42.805,6.029,13.3020,4.60067,2470.637,2022-12-02T08:24:37Z
2022-12-02T06:25:40Z,42.805,6.029,13.3019,4.60067,2470.646,2022-12-02T08:27:40Z
2022-12-02T06:28:43Z,42.805,6.029,13.3020,4.60067,2470.646,2022-12-02T08:30:43Z
2022-12-02T06:31:46Z,42.805,6.029,13.3019,4.60067,2470.646,2022-12-02T08:33:46Z
2022-12-02T06:34:49Z,42.805,6.029,13.3019,4.60067,2470.637,2022-12-02T08:36:49Z
2022-12-02T06:37:52Z,42.805,6.029,13.3021,4.60067,2470.624,2022-12-02T08:39:52Z
2022-12-02T06:40:55Z,42.805,6.029,13.3023,4.60067,2470.633,2022-12-02T08:42:55Z
2022-12-02T06:43:58Z,42.805,6.029,13.3017,4.60067,2470.624,2022-12-02T08:45:58Z
2022-12-02T06:47:02Z,42.805,6.029,13.3020,4.60066,2470.624,2022-12-02T08:49:01Z
2022-12-02T06:50:05Z,42.805,6.029,13.3017,4.60067,2470.614,2022-12-02T08:52:04Z
2022-12-02T06:53:08Z,42.805,6.029,13.3015,4.60067,2470.633,2022-12-02T08:55:07Z
2022-12-02T06:56:11Z,42.805,6.029,13.3019,4.60066,2470.646,2022-12-02T08:58:10Z
2022-12-02T06:59:14Z,42.805,6.029,13.3015,4.60065,2470.624,2022-12-02T09:01:13Z
2022-12-02T07:02:17Z,42.805,6.029,13.3021,4.60067,2470.624,2022-12-02T09:04:17Z
2022-12-02T07:05:20Z,42.805,6.029,13.3021,4.60067,2470.637,2022-12-02T09:07:20Z
2022-12-02T07:08:23Z,42.805,6.029,13.3017,4.60067,2470.637,2022-12-02T09:10:23Z
2022-12-02T07:11:26Z,42.805,6.029,13.3019,4.60066,2470.624,2022-12-02T09:13:26Z
2022-12-02T07:14:29Z,42.805,6.029,13.3019,4.60067,2470.614,2022-12-02T09:16:29Z
2022-12-02T07:17:32Z,42.805,6.029,13.3018,4.60065,2470.624,2022-12-02T09:19:32Z
2022-12-02T07:20:35Z,42.805,6.029,13.3021,4.60066,2470.624,2022-12-02T09:22:35Z
2022-12-02T07:23:38Z,42.805,6.029,13.3020,4.60066,2470.637,2022-12-02T09:25:38Z
2022-12-02T07:26:41Z,42.805,6.029,13.3020,4.60069,2470.637,2022-12-02T09:28:41Z
2022-12-02T07:29:44Z,42.805,6.029,13.3015,4.60066,2470.624,2022-12-02T09:31:44Z
2022-12-02T07:32:48Z,42.805,6.029,13.3015,4.60064,2470.624,2022-12-02T09:34:47Z
2022-12-02T07:35:51Z,42.805,6.029,13.3017,4.60066,2470.624,2022-12-02T09:37:50Z
2022-12-02T07:38:54Z,42.805,6.029,13.3019,4.60066,2470.624,2022-12-02T09:40:53Z
2022-12-02T07:41:57Z,42.805,6.029,13.3019,4.60066,2470.637,2022-12-02T09:43:56Z
2022-12-02T07:45:00Z,42.805,6.029,13.3018,4.60065,2470.6,2022-12-02T09:46:59Z
2022-12-02T07:48:03Z,42.805,6.029,13.3017,4.60064,2470.6,2022-12-02T09:50:03Z
2022-12-02T07:51:06Z,42.805,6.029,13.3019,4.60066,2470.637,2022-12-02T09:53:06Z
2022-12-02T07:54:09Z,42.805,6.029,13.3019,4.60064,2470.661,2022-12-02T09:56:09Z
2022-12-02T07:57:12Z,42.805,6.029,13.3018,4.60064,2470.6,2022-12-02T09:59:12Z
2022-12-02T08:00:15Z,42.805,6.029,13.3019,4.60067,2470.624,2022-12-02T10:02:15Z
2022-12-02T08:03:18Z,42.805,6.029,13.3019,4.60066,2470.661,2022-12-02T10:05:18Z
2022-12-02T08:06:21Z,42.805,6.029,13.3018,4.60066,2470.637,2022-12-02T10:08:21Z
2022-12-02T08:09:24Z,42.805,6.029,13.3015,4.60066,2470.637,2022-12-02T10:11:24Z
2022-12-02T08:12:27Z,42.805,6.029,13.3015,4.60064,2470.637,2022-12-02T10:14:27Z
2022-12-02T08:15:31Z,42.805,6.029,13.3014,4.60064,2470.614,2022-12-02T10:17:30Z
2022-12-02T08:18:34Z,42.805,6.029,13.3017,4.60064,2470.624,2022-12-02T10:20:33Z
2022-12-02T08:21:37Z,42.805,6.029,13.3018,4.60064,2470.6,2022-12-02T10:23:36Z
2022-12-02T08:24:40Z,42.805,6.029,13.3019,4.60064,2470.624,2022-12-02T10:26:39Z
2022-12-02T08:27:43Z,42.805,6.029,13.3020,4.60064,2470.637,2022-12-02T10:29:43Z
2022-12-02T08:30:46Z,42.805,6.029,13.3016,4.60064,2470.637,2022-12-02T10:32:46Z
2022-12-02T08:33:49Z,42.805,6.029,13.3015,4.60064,2470.624,2022-12-02T10:35:49Z
2022-12-02T08:36:52Z,42.805,6.029,13.3014,4.60064,2470.661,2022-12-02T10:38:52Z
2022-12-02T08:39:55Z,42.805,6.029,13.3017,4.60064,2470.624,2022-12-02T10:41:55Z
2022-12-02T08:42:58Z,42.805,6.029,13.3016,4.60064,2470.614,2022-12-02T10:44:58Z
2022-12-02T08:46:01Z,42.805,6.029,13.3021,4.60064,2470.637,2022-12-02T10:48:01Z
2022-12-02T08:49:04Z,42.805,6.029,13.3018,4.60066,2470.646,2022-12-02T10:51:04Z
2022-12-02T08:52:07Z,42.805,6.029,13.3016,4.60064,2470.6,2022-12-02T10:54:07Z
2022-12-02T08:55:11Z,42.805,6.029,13.3019,4.60064,2470.661,2022-12-02T10:57:10Z
2022-12-02T08:58:14Z,42.805,6.029,13.3015,4.60066,2470.67,2022-12-02T11:00:13Z
2022-12-02T09:01:17Z,42.805,6.029,13.3019,4.60064,2470.637,2022-12-02T11:03:16Z
2022-12-02T09:04:20Z,42.805,6.029,13.3018,4.60066,2470.6,2022-12-02T11:06:19Z
2022-12-02T09:07:23Z,42.805,6.029,13.3023,4.60065,2470.624,2022-12-02T11:09:23Z
2022-12-02T09:10:26Z,42.805,6.029,13.3015,4.60067,2470.637,2022-12-02T11:12:26Z
2022-12-02T09:13:29Z,42.805,6.029,13.3021,4.60065,2470.614,2022-12-02T11:15:29Z
2022-12-02T09:16:32Z,42.805,6.029,13.3022,4.60067,2470.624,2022-12-02T11:18:32Z
2022-12-02T09:19:35Z,42.805,6.029,13.3019,4.60066,2470.646,2022-12-02T11:21:35Z
2022-12-02T09:22:38Z,42.805,6.029,13.3016,4.60066,2470.637,2022-12-02T11:24:38Z
2022-12-02T09:25:41Z,42.805,6.029,13.3017,4.60065,2470.624,2022-12-02T11:27:41Z
2022-12-02T09:28:44Z,42.805,6.029,13.3014,4.60067,2470.637,2022-12-02T11:30:44Z
2022-12-02T09:31:47Z,42.805,6.029,13.3014,4.60066,2470.661,2022-12-02T11:33:47Z
2022-12-02T09:34:51Z,42.805,6.029,13.3014,4.60067,2470.646,2022-12-02T11:36:50Z
2022-12-02T09:37:54Z,42.805,6.029,13.3015,4.60065,2470.637,2022-12-02T11:39:53Z
2022-12-02T09:40:57Z,42.805,6.029,13.3018,4.60066,2470.6,2022-12-02T11:42:56Z
2022-12-02T09:44:00Z,42.805,6.029,13.3014,4.60066,2470.624,2022-12-02T11:46:00Z
2022-12-02T09:47:03Z,42.805,6.029,13.3015,4.60066,2470.646,2022-12-02T11:49:03Z
2022-12-02T09:50:06Z,42.805,6.029,13.3017,4.60066,2470.661,2022-12-02T11:52:06Z
2022-12-02T09:53:09Z,42.805,6.029,13.3017,4.60066,2470.646,2022-12-02T11:55:09Z
2022-12-02T09:56:12Z,42.805,6.029,13.3017,4.60066,2470.646,2022-12-02T11:58:12Z
2022-12-02T09:59:15Z,42.805,6.029,13.3016,4.60067,2470.624,2022-12-02T12:01:15Z
2022-12-02T10:02:18Z,42.805,6.029,13.3019,4.60067,2470.67,2022-12-02T12:04:18Z
2022-12-02T10:05:21Z,42.805,6.029,13.3020,4.60067,2470.67,2022-12-02T12:07:21Z
2022-12-02T10:08:24Z,42.805,6.029,13.3019,4.60067,2470.661,2022-12-02T12:10:24Z
2022-12-02T10:11:27Z,42.805,6.029,13.3020,4.60067,2470.624,2022-12-02T12:13:27Z
2022-12-02T10:14:31Z,42.805,6.029,13.3021,4.60067,2470.646,2022-12-02T12:16:30Z
2022-12-02T10:17:34Z,42.805,6.029,13.3018,4.60069,2470.624,2022-12-02T12:19:33Z
2022-12-02T10:20:37Z,42.805,6.029,13.3020,4.60068,2470.693,2022-12-02T12:22:36Z
2022-12-02T10:23:40Z,42.805,6.029,13.3021,4.60068,2470.661,2022-12-02T12:25:39Z
2022-12-02T10:26:43Z,42.805,6.029,13.3020,4.60068,2470.624,2022-12-02T12:28:43Z
2022-12-02T10:29:46Z,42.805,6.029,13.3021,4.60069,2470.646,2022-12-02T12:31:46Z
2022-12-02T10:32:49Z,42.805,6.029,13.3023,4.60068,2470.661,2022-12-02T12:34:49Z
2022-12-02T10:35:52Z,42.805,6.029,13.3021,4.60069,2470.624,2022-12-02T12:37:52Z
2022-12-02T10:38:55Z,42.805,6.029,13.3020,4.60067,2470.693,2022-12-02T12:40:55Z
2022-12-02T10:41:58Z,42.805,6.029,13.3022,4.60069,2470.646,2022-12-02T12:43:58Z
2022-12-02T10:45:01Z,42.805,6.029,13.3022,4.60069,2470.624,2022-12-02T12:47:01Z
2022-12-02T10:48:04Z,42.805,6.029,13.3019,4.60068,2470.646,2022-12-02T12:50:04Z
2022-12-02T10:51:07Z,42.805,6.029,13.3016,4.60068,2470.646,2022-12-02T12:53:07Z
2022-12-02T10:54:11Z,42.805,6.029,13.3021,4.60067,2470.67,2022-12-02T12:56:10Z
2022-12-02T10:57:14Z,42.805,6.029,13.3020,4.60068,2470.646,2022-12-02T12:59:13Z
2022-12-02T11:00:17Z,42.805,6.029,13.3021,4.60068,2470.67,2022-12-02T13:02:16Z
2022-12-02T11:03:20Z,42.805,6.029,13.3019,4.60068,2470.646,2022-12-02T13:05:19Z
2022-12-02T11:06:23Z,42.805,6.029,13.3023,4.60069,2470.646,2022-12-02T13:08:22Z
2022-12-02T11:09:26Z,42.805,6.029,13.3020,4.60067,2470.661,2022-12-02T13:11:26Z
2022-12-02T11:12:29Z,42.805,6.029,13.3020,4.60067,2470.661,2022-12-02T13:14:29Z
2022-12-02T11:15:32Z,42.805,6.029,13.3023,4.60068,2470.646,2022-12-02T13:17:32Z
2022-12-02T11:18:35Z,42.805,6.029,13.3021,4.60067,2470.693,2022-12-02T13:20:35Z
2022-12-02T11:21:38Z,42.805,6.029,13.3020,4.60067,2470.684,2022-12-02T13:23:38Z
2022-12-02T11:24:41Z,42.805,6.029,13.3021,4.60068,2470.67,2022-12-02T13:26:41Z
2022-12-02T11:27:44Z,42.805,6.029,13.3023,4.60068,2470.684,2022-12-02T13:29:44Z
2022-12-02T11:30:47Z,42.805,6.029,13.3019,4.60068,2470.661,2022-12-02T13:32:47Z
2022-12-02T11:33:50Z,42.805,6.029,13.3022,4.60068,2470.646,2022-12-02T13:35:50Z
2022-12-02T11:36:54Z,42.805,6.029,13.3019,4.60069,2470.707,2022-12-02T13:38:53Z
2022-12-02T11:39:57Z,42.805,6.029,13.3019,4.60069,2470.707,2022-12-02T13:41:56Z
2022-12-02T11:43:00Z,42.805,6.029,13.3021,4.60069,2470.684,2022-12-02T13:44:59Z
2022-12-02T11:46:03Z,42.805,6.029,13.3024,4.60069,2470.693,2022-12-02T13:48:02Z
2022-12-02T11:49:06Z,42.805,6.029,13.3016,4.60068,2470.693,2022-12-02T13:51:06Z
2022-12-02T11:52:09Z,42.805,6.029,13.3021,4.60069,2470.717,2022-12-02T13:54:09Z
2022-12-02T11:55:12Z,42.805,6.029,13.3015,4.60069,2470.707,2022-12-02T13:57:12Z
2022-12-02T11:58:15Z,42.805,6.029,13.3019,4.60068,2470.693,2022-12-02T14:00:15Z
2022-12-02T12:01:18Z,42.805,6.029,13.3024,4.60068,2470.693,2022-12-02T14:03:18Z
2022-12-02T12:04:21Z,42.805,6.029,13.3023,4.60071,2470.707,2022-12-02T14:06:21Z
2022-12-02T12:07:24Z,42.805,6.029,13.3019,4.60069,2470.693,2022-12-02T14:09:24Z
2022-12-02T12:10:27Z,42.805,6.029,13.3022,4.60069,2470.717,2022-12-02T14:12:27Z
2022-12-02T12:13:30Z,42.805,6.029,13.3023,4.60071,2470.707,2022-12-02T14:15:30Z
2022-12-02T12:16:33Z,42.805,6.029,13.3022,4.60069,2470.693,2022-12-02T14:18:33Z
2022-12-02T12:19:37Z,42.805,6.029,13.3021,4.60072,2470.707,2022-12-02T14:21:36Z
2022-12-02T12:22:40Z,42.805,6.029,13.3023,4.60069,2470.693,2022-12-02T14:24:39Z
2022-12-02T12:25:43Z,42.805,6.029,13.3024,4.60069,2470.693,2022-12-02T14:27:42Z
2022-12-02T12:28:46Z,42.805,6.029,13.3018,4.60070,2470.73,2022-12-02T14:30:45Z
2022-12-02T12:31:49Z,42.805,6.029,13.3021,4.60070,2470.67,2022-12-02T14:33:49Z
2022-12-02T12:34:52Z,42.805,6.029,13.3022,4.60069,2470.73,2022-12-02T14:36:52Z
2022-12-02T12:37:55Z,42.805,6.029,13.3019,4.60070,2470.693,2022-12-02T14:39:55Z
2022-12-02T12:40:58Z,42.805,6.029,13.3019,4.60070,2470.707,2022-12-02T14:42:58Z
2022-12-02T12:44:01Z,42.805,6.029,13.3021,4.60070,2470.693,2022-12-02T14:46:01Z
2022-12-02T12:47:04Z,42.805,6.029,13.3024,4.60069,2470.707,2022-12-02T14:49:04Z
2022-12-02T12:50:07Z,42.805,6.029,13.3021,4.60069,2470.717,2022-12-02T14:52:07Z
2022-12-02T12:53:10Z,42.805,6.029,13.3021,4.60070,2470.717,2022-12-02T14:55:10Z
2022-12-02T12:56:13Z,42.805,6.029,13.3024,4.60070,2470.717,2022-12-02T14:58:13Z
2022-12-02T12:59:17Z,42.805,6.029,13.3021,4.60072,2470.717,2022-12-02T15:01:16Z
2022-12-02T13:02:20Z,42.805,6.029,13.3022,4.60069,2470.73,2022-12-02T15:04:19Z
2022-12-02T13:05:23Z,42.805,6.029,13.3021,4.60071,2470.74,2022-12-02T15:07:22Z
2022-12-02T13:08:26Z,42.805,6.029,13.3024,4.60072,2470.74,2022-12-02T15:10:25Z
2022-12-02T13:11:29Z,42.805,6.029,13.3025,4.60071,2470.74,2022-12-02T15:13:29Z
2022-12-02T13:14:32Z,42.805,6.029,13.3021,4.60070,2470.763,2022-12-02T15:16:32Z
2022-12-02T13:17:35Z,42.805,6.029,13.3021,4.60070,2470.763,2022-12-02T15:19:35Z
2022-12-02T13:20:38Z,42.805,6.029,13.3021,4.60071,2470.74,2022-12-02T15:22:38Z
2022-12-02T13:23:41Z,42.805,6.029,13.3023,4.60069,2470.717,2022-12-02T15:25:41Z
2022-12-02T13:26:44Z,42.805,6.029,13.3020,4.60069,2470.74,2022-12-02T15:28:44Z
2022-12-02T13:29:47Z,42.805,6.029,13.3019,4.60070,2470.74,2022-12-02T15:31:47Z
2022-12-02T13:32:50Z,42.805,6.029,13.3022,4.60070,2470.777,2022-12-02T15:34:50Z
2022-12-02T13:35:53Z,42.805,6.029,13.3024,4.60070,2470.74,2022-12-02T15:37:53Z
2022-12-02T13:38:56Z,42.805,6.029,13.3021,4.60070,2470.74,2022-12-02T15:40:56Z
2022-12-02T13:42:00Z,42.805,6.029,13.3026,4.60073,2470.74,2022-12-02T15:43:59Z
2022-12-02T13:45:03Z,42.805,6.029,13.3017,4.60072,2470.74,2022-12-02T15:47:02Z
2022-12-02T13:48:06Z,42.805,6.029,13.3021,4.60070,2470.754,2022-12-02T15:50:05Z
2022-12-02T13:51:09Z,42.805,6.029,13.3021,4.60072,2470.754,2022-12-02T15:53:08Z
2022-12-02T13:54:12Z,42.805,6.029,13.3021,4.60072,2470.763,2022-12-02T15:56:12Z
2022-12-02T13:57:15Z,42.805,6.029,13.3024,4.60070,2470.74,2022-12-02T15:59:15Z
2022-12-02T14:00:18Z,42.805,6.029,13.3021,4.60074,2470.74,2022-12-02T16:02:18Z
2022-12-02T14:03:21Z,42.805,6.029,13.3021,4.60072,2470.763,2022-12-02T16:05:21Z
2022-12-02T14:06:24Z,42.805,6.029,13.3020,4.60072,2470.754,2022-12-02T16:08:24Z
2022-12-02T14:09:27Z,42.805,6.029,13.3021,4.60070,2470.763,2022-12-02T16:11:27Z
2022-12-02T14:12:30Z,42.805,6.029,13.3021,4.60074,2470.763,2022-12-02T16:14:30Z
2022-12-02T14:15:33Z,42.805,6.029,13.3022,4.60070,2470.74,2022-12-02T16:17:33Z
2022-12-02T14:18:36Z,42.805,6.029,13.3021,4.60071,2470.717,2022-12-02T16:20:36Z
2022-12-02T14:21:40Z,42.805,6.029,13.3024,4.60071,2470.8,2022-12-02T16:23:39Z
2022-12-02T14:24:43Z,42.805,6.029,13.3021,4.60072,2470.777,2022-12-02T16:26:42Z
2022-12-02T14:27:46Z,42.805,6.029,13.3022,4.60070,2470.754,2022-12-02T16:29:45Z
2022-12-02T14:30:49Z,42.805,6.029,13.3021,4.60071,2470.763,2022-12-02T16:32:48Z
2022-12-02T14:33:52Z,42.805,6.029,13.3021,4.60069,2470.787,2022-12-02T16:35:52Z
2022-12-02T14:36:55Z,42.805,6.029,13.3022,4.60072,2470.74,2022-12-02T16:38:55Z
2022-12-02T14:39:58Z,42.805,6.029,13.3020,4.60070,2470.74,2022-12-02T16:41:58Z
2022-12-02T14:43:01Z,42.805,6.029,13.3021,4.60072,2470.777,2022-12-02T16:45:01Z
2022-12-02T14:46:04Z,42.805,6.029,13.3020,4.60070,2470.763,2022-12-02T16:48:04Z
2022-12-02T14:49:07Z,42.805,6.029,13.3025,4.60069,2470.787,2022-12-02T16:51:07Z
2022-12-02T14:52:10Z,42.805,6.029,13.3018,4.60069,2470.787,2022-12-02T16:54:10Z
2022-12-02T14:55:13Z,42.805,6.029,13.3022,4.60069,2470.74,2022-12-02T16:57:13Z
2022-12-02T14:58:16Z,42.805,6.029,13.3024,4.60069,2470.763,2022-12-02T17:00:16Z
2022-12-02T15:01:19Z,42.805,6.029,13.3019,4.60069,2470.777,2022-12-02T17:03:19Z